Погода в Андоне

Южная Корея     36°33′49″N   128°43′05″E
темп.,
°C
ветер,
м/с
пор.,
м/с
влажн.,
%
обл.,
%
осадки,
мм/ч
давл.,
гПа
погр.,
м
26 мая, чт
чт2600:00+18зюз41256100 0.0 1005577
03:00+15з61281100 0.3 1005934
06:00+14з41088100 1.1 1006607
09:00+18з574582 1.1 10061176
12:00+24з57260 0.0 10052206
15:00+25з68244 0.0 10032510
18:00+23з57295 0.0 10021803
21:00+15з3104729 0.0 1003251
27 мая, пт
пт2700:00+12юз12530 0.0 100214
03:00+10ю22610 0.0 100122
06:00+10юз226224 0.0 100141
09:00+19з7135570 0.0 10001590
12:00+23з8133962 0.1 9992240
15:00+24зсз812353 0.1 9982238
18:00+21з69470 0.0 9991513
21:00+17з411600 0.0 1002546
28 мая, сб
сб2800:00+14зюз310720 0.0 1003269
03:00+10юз01890 0.0 100510
06:00+11юз11861 0.0 100613
09:00+21з364599 0.0 1006587
12:00+27з5929100 0.0 10051227
15:00+31з682225 0.0 10042073
18:00+28з58330 0.0 10041189
21:00+19з3114891 0.0 1007232
29 мая, вс
вс2900:00+15з01565 0.0 100711
03:00+13зсз11644 0.0 100810
06:00+13ююз00698 0.0 100810
09:00+23з1239100 0.0 1007529
12:00+29юз3520100 0.0 10041701
15:00+30ююз5619100 0.0 10022383
18:00+26ю5828100 0.0 1002978
21:00+16ююз12605 0.0 100430
30 мая, пн
пн3000:00+14всв117671 0.0 100410
03:00+15в116799 0.0 100141
06:00+16с1169100 0.1 100033
09:00+18зсз1169100 0.2 999250
12:00+23зюз345899 0.0 9971082
15:00+20з5972100 0.0 998951
18:00+19з597093 0.0 999949
21:00+15з512510 0.0 1001593